This demonstration page uses our WeatherBlox Daily Observations layout. Learn more.

Left ArrowRight Arrow

39.08367, -84.50855

Hourly Observations for April 21, 2020

Temp ( °F °C ) Dew Point ( °F °C ) Humidity (%) Winds ( mph kmh ) Pressure ( in mb ) Visibility ( mi km ) Precip ( " mm )
12:53 am 00:53 Partly Cloudy 51 10.6 38 3.3 61 61 SW 7 11 29.68 1005 10 16 0.00 0.00
1:53 am 01:53 Mostly Cloudy 54 12.2 40 4.4 59 59 SSW 8 13 29.66 1004 10 16 0.00 0.00
2:53 am 02:53 Cloudy with Light Rain 53 11.7 41 5 64 64 SSE 6 9 29.65 1004 10 16 0.00 0.00
3:53 am 03:53 Cloudy 54 12.2 42 5.6 64 64 SW 10 17 29.63 1004 10 16 0.00 0.00
4:53 am 04:53 Mostly Cloudy 52 11.1 42 5.6 69 69 SW 9 15 29.63 1003 10 16 0.00 0.00
5:53 am 05:53 Mostly Cloudy 56 13.3 41 5 57 57 W 14 22 29.64 1004 10 16 0.00 0.00
6:53 am 06:53 Mostly Cloudy 55 12.8 41 5 59 59 W 14 22 29.67 1005 10 16 0.00 0.00
7:53 am 07:53 Mostly Sunny 55 12.8 41 5 59 59 W 13 20 29.70 1006 10 16 0.00 0.00
8:53 am 08:53 Mostly Sunny 56 13.3 41 5 57 57 W 14 22 29.75 1007 10 16 0.00 0.00
9:10 am 09:10 Partly Cloudy 53 11.7 41 5 64 64 N 17 28 29.78 1009 10 16 0.00 0.00
9:53 am 09:53 Partly Cloudy 52 11.1 35 1.7 53 53 NNW 14 22 29.81 1010 10 16 0.00 0.00
10:53 am 10:53 Partly Cloudy 54 12.2 34 1.1 47 47 NW 15 24 29.84 1011 10 16 0.00 0.00
11:53 am 11:53 Partly Cloudy 54 12.2 28 -2.2 37 37 NW 18 30 29.87 1012 10 16 0.00 0.00
12:53 pm 12:53 Mostly Sunny 55 12.8 26 -3.3 33 33 W 15 24 29.89 1012 10 16 0.00 0.00
1:53 pm 13:53 Mostly Sunny 57 13.9 24 -4.4 28 28 WNW 16 26 29.89 1012 10 16 0.00 0.00
2:53 pm 14:53 Sunny 58 14.4 24 -4.4 27 27 WNW 15 24 29.90 1013 10 16 0.00 0.00
3:53 pm 15:53 Sunny 57 13.9 19 -7.2 23 23 W 21 33 29.92 1013 10 16 0.00 0.00
4:53 pm 16:53 Sunny 57 13.9 18 -7.8 22 22 W 21 33 29.94 1014 10 16 0.00 0.00
5:53 pm 17:53 Sunny 56 13.3 16 -8.9 21 21 NW 18 30 29.95 1014 10 16 0.00 0.00
6:53 pm 18:53 Sunny 55 12.8 17 -8.3 22 22 NW 12 19 29.96 1015 10 16 0.00 0.00
7:53 pm 19:53 Sunny 53 11.7 13 -10.6 20 20 NW 12 19 29.98 1015 10 16 0.00 0.00
8:53 pm 20:53 Clear 50 10 15 -9.4 25 25 NNW 3 6 30.00 1016 10 16 0.00 0.00
9:53 pm 21:53 Clear 44 6.7 20 -6.7 38 38 Calm 30.02 1017 10 16 0.00 0.00
10:53 pm 22:53 Clear 41 5 29 -1.7 62 62 Calm 30.03 1017 10 16 0.00 0.00
11:53 pm 23:53 Clear 37 2.8 29 -1.7 73 73 Calm 30.04 1017 10 16 0.00 0.00

Powered by AerisWeather